Location: Newark
(19.2128°S, 49.7858°W)
Time: 20:26:58
(UTC+00:00)

Envisat - Visible Passes

Search period start: 25 August 2019 00:00
Search period end: 04 September 2019 00:00
Orbit: 764 x 766 km, 98.1° (Epoch: 25 August)

Date Brightness Start Highest point End Pass type
(mag) Time Alt. Az. Time Alt. Az. Time Alt. Az.
25 Aug 3.1 21:52:44 10° SSE 21:57:44 53° E 22:02:40 10° N visible
25 Aug 6.1 23:35:26 10° WSW 23:36:12 10° WSW 23:37:00 10° W visible
26 Aug 5.7 08:56:35 10° ENE 09:00:22 21° ESE 09:04:11 10° SSE visible
26 Aug 4.9 22:55:28 10° SSW 22:59:47 28° WSW 23:04:05 10° NW visible
27 Aug 3.2 22:18:05 10° S 22:23:12 76° WSW 22:28:15 10° NNW visible
28 Aug 3.4 21:41:42 10° SSE 21:46:29 39° E 21:51:12 10° NNE visible
28 Aug 5.9 23:22:26 10° SW 23:25:05 14° WSW 23:27:43 10° WNW visible
29 Aug 5.9 08:46:10 10° ENE 08:49:12 16° ESE 08:52:17 10° SE visible
29 Aug 4.4 22:43:55 10° S 22:48:36 37° WSW 22:53:14 10° NW visible
30 Aug 2.9 22:06:50 10° SSE 22:11:58 81° ENE 22:17:03 10° N visible
31 Aug 3.8 21:30:47 10° SE 21:35:13 30° E 21:39:36 10° NNE visible
31 Aug 5.5 23:10:23 10° SSW 23:13:55 19° WSW 23:17:27 10° WNW visible
01 Sep 6.2 08:36:14 10° E 08:38:04 12° ESE 08:39:55 10° SE visible
01 Sep 3.9 22:32:28 10° S 22:37:24 50° WSW 22:42:17 10° NNW visible
02 Sep 3.0 21:55:41 10° SSE 22:00:44 60° E 22:05:44 10° N visible
03 Sep 5.6 08:59:20 10° NE 09:03:21 24° ESE 09:07:23 10° SSE visible
03 Sep 5.1 22:58:37 10° SSW 23:02:46 25° WSW 23:06:52 10° NW visible
